www.pogodaiklimat.ru

Погода и климат >> Архив погоды >> Пакистан >> Джанг


ПОГОДА в Джанге

  • Прогноз погоды в Джанге
  • Монитор погоды в Джанге

АРХИВ ПОГОДЫ в Джанге

Время (UTC), дата Ветер
(напр.,м/с)
 
Видим.   Явления Облачность Т
(С)
Тd
(С)
f
(%)
Тe
(С)
Тes
(С)
Комфортность P
(гПа)
Po
(гПа)
Тmin
(С)
Tmax
(С)
R
(мм)
R24
(мм)
S
(см)
09 11.08 ЮВ 1 4000 м дым 6/5 1200 м
[Sc Ac trans]
+36.5 +26.2 56 +53 +61 опасность
перегрева
1000.4 983.2
12 11.08 ЮВ 2 4000 м дым 9/5 1200 м
[Sc Ac As]
+34.0 +26.5 65 +51 +52 опасность
перегрева
998.7 981.3 +37.2
15 11.08 штиль 0 4000 м дым 8/3 1200 м
[Sc Ac As]
+33.0 +26.8 70 +51 +51 опасность
перегрева
999.1 981.7
18 11.08 штиль 0 4000 м дым 4/0
[Ac trans]
+31.0 +26.9 79 +48 +48 опасность
перегрева
1000.3 982.6
21 11.08 ЮВ 1 4000 м дым 3/0
[Ac trans]
+30.0 +26.5 82 +46 +46 опасность
перегрева
1000.1 982.4
00 12.08 ЮВ 1 2000 м дымка 6/0
[Ac trans]
+28.5 +25.7 85 +42 +42 опасность
перегрева
999.8 982.0
03 12.08 штиль 0 4000 м дым ясно +32.0 +27.9 79 +52 +60 опасность
перегрева
1000.7 983.0 +27.8
06 12.08 ЮВ 1 4000 м дым 5/5 1200 м
[Sc]
+35.0 +28.1 68 +56 +67 опасность
перегрева
1001.6 984.2
09 12.08 ЮВ 2 4000 м дым 5/4 1200 м
[Sc Ac trans]
+36.5 +26.2 56 +53 +62 опасность
перегрева
999.7 982.5
12 12.08 ЮВ 1 4000 м дым 5/4 1200 м
[Sc Ac trans]
+37.0 +26.0 53 +52 +54 опасность
перегрева
998.1 980.9 +38.2
15 12.08 ЮВ 1 4000 м дым ясно +34.0 +27.2 68 +53 +53 опасность
перегрева
998.4 981.0
18 12.08 штиль 0 4000 м дым ясно +31.5 +27.4 79 +50 +50 опасность
перегрева
999.5 981.8
21 12.08 ЮВ 1 4000 м дым ясно +30.0 +26.5 82 +46 +46 опасность
перегрева
998.8 981.1
00 13.08 штиль 0 4000 м дым ясно +29.0 +25.5 81 +43 +43 опасность
перегрева
998.4 980.6
03 13.08 штиль 0 10 км ясно +31.5 +24.4 66 +44 +51 опасность
перегрева
999.9 982.2 +28.6
06 13.08 ЮВ 2 10 км ясно +35.0 +24.5 55 +48 +66 опасность
перегрева
1000.0 982.6
09 13.08 ЮЗ 2 10 км ясно +36.5 +25.5 53 +51 +67 опасность
перегрева
998.7 981.5
12 13.08 ЮЗ 2 10 км ясно +36.5 +25.5 53 +51 +54 опасность
перегрева
997.2 980.0 +38.2
15 13.08 ЮЗ 1 4000 м дым ясно +33.5 +25.1 62 +48 +48 опасность
перегрева
998.2 980.8
18 13.08 ЮВ 1 4000 м дым ясно +31.5 +24.4 66 +44 +44 опасность
перегрева
999.7 982.0
21 13.08 штиль 0 4000 м дым ясно +30.0 +25.1 75 +43 +43 опасность
перегрева
999.0 981.3
00 14.08 штиль 0 4000 м дым ясно +29.0 +24.8 78 +41 +41 опасность
перегрева
999.1 981.3
03 14.08 Ю 2 10 км ясно +31.5 +24.4 66 +44 +49 опасность
перегрева
1000.9 983.4 +28.5
06 14.08 ЮЗ 2 10 км ясно +35.0 +24.5 55 +48 +66 опасность
перегрева
1002.8 985.4
09 14.08 ЮЗ 1 10 км 3/3 1200 м
[Sc]
+37.0 +25.2 51 +51 +64 опасность
перегрева
1001.3 984.3
12 14.08 З 1 10 км ясно +36.5 +25.5 53 +51 +54 опасность
перегрева
999.7 982.7 +37.5
15 14.08 ЮВ 1 4000 м дым 3/0
[Ci fib]
+33.0 +24.6 61 +46 +46 опасность
перегрева
1001.0 983.8
18 14.08 штиль 0 4000 м дым ясно +32.0 +25.0 67 +46 +46 опасность
перегрева
1003.0 985.3
21 14.08 штиль 0 4000 м дым ясно +30.5 +24.9 72 +44 +44 опасность
перегрева
1001.9 984.4
00 15.08 штиль 0 4000 м дым ясно +29.0 +24.8 78 +41 +41 опасность
перегрева
1001.3 983.7
03 15.08 штиль 0 10 км ясно +32.0 +26.5 73 +49 +56 опасность
перегрева
1002.8 985.3 +28.5
06 15.08 ЮВ 1 10 км ясно +35.0 +24.5 55 +48 +69 опасность
перегрева
1002.4 985.2
09 15.08 ЮЗ 1 10 км 3/3 1200 м
[Cu med, cong]
+37.5 +23.4 45 +48 +61 опасность
перегрева
1000.4 983.4
12 15.08 штиль 0 10 км 3/3 1200 м
[Cu med, cong]
+37.5 +24.2 47 +49 +52 опасность
перегрева
999.1 982.1 +38.2
15 15.08 штиль 0 4000 м дым 5/0
[Ci sp]
+35.0 +26.8 63 +53 +53 опасность
перегрева
998.4 981.2
18 15.08 штиль 0 4000 м дым 5/0
[Ci sp]
+33.0 +24.6 61 +46 +46 опасность
перегрева
999.6 982.4
21 15.08 Ю 1 4000 м дым 4/0
[Ac trans]
+31.0 +26.1 75 +46 +46 опасность
перегрева
999.3 981.8
00 16.08 ЮВ 2 4000 м дым 3/0
[Ac trans]
+29.5 +26.7 85 +46 +46 опасность
перегрева
999.6 982.1
03 16.08 ЮВ 1 10 км ясно +32.0 +25.8 70 +47 +54 опасность
перегрева
1001.1 983.4 +29.3
06 16.08 СЗ 1 10 км ясно +36.0 +25.6 55 +51 +72 опасность
перегрева
1000.3 983.1
09 16.08 СЗ 1 10 км 6/4 1200 м
[Sc diur, vesp Ac trans]
+37.5 +25.8 51 +52 +61 опасность
перегрева
998.1 980.9
12 16.08 штиль 0 2000 м гроза, ливневой дождь 9/6 900 м
[Cb cap As op]
+28.0 +25.2 85 +41 +41 опасность
перегрева
998.8 981.0 +38.8 11
15 16.08 штиль 0 4000 м дым {гроза} 8/4 1200 м
[Sc Ac trans]
+27.5 +23.9 81 +38 +38 очень
душно
998.4 980.6 8
18 16.08 ЮВ 1 4000 м дым {гроза} 9/5 1200 м
[Sc Ac As]
+28.0 +25.2 85 +41 +41 опасность
перегрева
999.0 981.2
21 16.08 СЗ 2 4000 м дым 9/5 1200 м
[Sc Ac As]
+28.0 +25.2 85 +41 +41 опасность
перегрева
999.0 981.2
00 17.08 ЮВ 1 4000 м дым 8/4 1200 м
[Sc Ac trans]
+27.0 +24.9 88 +39 +39 очень
душно
999.0 981.2
03 17.08 Ю 1 4000 м дым 3/0
[Ac trans]
+29.0 +26.2 85 +44 +49 опасность
перегрева
999.9 982.3 +26.5
06 17.08 Ю 1 10 км 4/0
[Ac trans]
+33.0 +26.8 70 +51 +67 опасность
перегрева
1001.1 983.9
12 17.08 ЮВ 1 10 км 3/0
[Ac trans]
+34.5 +25.5 60 +49 +52 опасность
перегрева
998.1 980.9 +35.7
15 17.08 штиль 0 4000 м дым 3/0
[Ac trans]
+31.0 +25.4 72 +45 +45 опасность
перегрева
999.3 981.8
18 17.08 штиль 0 4000 м дым 3/0
[Ac trans]
+28.5 +25.0 81 +41 +41 опасность
перегрева
1000.5 982.9
21 17.08 штиль 0 4000 м дым ясно +26.5 +24.8 90 +38 +38 очень
душно
1001.8 984.0
00 18.08 штиль 0 4000 м дым ясно +25.5 +23.5 89 +35 +35 очень
душно
1001.5 983.7
03 18.08 ЮЗ 1 4000 м дым 8/5 1200 м
[Sc Ac As]
+27.5 +23.9 81 +38 +40 очень
душно
1002.9 985.1 +25.0
06 18.08 ЮЗ 1 10 км ясно +32.5 +24.0 61 +44 +66 опасность
перегрева
1003.6 986.2

 

Местоположение метеостанции Джанг (Пакистан): широта 31.27 долгота 72.32 высота над уровнем моря 153 м.

В архиве по умолчанию представлена погода в Джанге за последнюю неделю. Архивные данные за месяц целиком и за предыдущие месяцы, начиная с января 2011 года, Вы можете получить, выбрав интересующий диапазон дат из раскрывающегося списка и нажав кнопку "Ввод!".


*Определитесь, кто Вы:
робот инопланетянин человек

Внимание! Время в таблицах - всемирное. Для получения местного времени необходимо прибавить поправку, которая равна 5 ч.

Смотрите также архив погоды в соседних городах и на ближайших метеорологических станциях:

Погода в Тоба Тек Сингх (Пакистан) (35 км)
Погода на Авиабазе Raifiqui (Пакистан) (56 км)
Погода в Фейсалабаде (Пакистан) (76 км)
Погода в Нур Пур Тал (Пакистан) (78 км)
Погода в Саргодхе (Пакистан) (93 км)
Погода в Саргодхе (Пакистан) (93 км)
Погода в Сахивале (Пакистан) (95 км)
Погода в Ханевале (Пакистан) (115 км)
Погода в Окаре (Пакистан) (118 км)
Погода в Бхаккаре (Пакистан) (125 км)

Пояснения к столбцам:

Ветер - указаны скорость ветра в м/с - средняя за 10 мин, порывы в срок и между сроками (в фигурных скобках) и направление, откуда дует ветер: С - северный, СВ - северо-восточный, В - восточный, ЮВ - юго-восточный, Ю - южный, ЮЗ - юго-западный, З - западный, СЗ - северо-западный.
Видимость - горизонтальная дальность видимости в метрах или километрах. При видимости от 1 до 10 км при отсутствии осадков обычно наблюдается дымка, при ухудшении видимости до 1 км и менее - туман. В сухую погоду видимость может ухудшаться дымом, пылью или мглою.
Явления - указаны атмосферные явления, наблюдавшиеся в срок или в последний час перед сроком; фигурными скобками обозначены явления, наблюдавшиеся между сроками (за 1-3 часа до срока); квадратными скобками обозначены град или гололедные отложения с указанием их диаметра в мм.
Облачность - указаны через наклонную черту общая и нижняя облачность в баллах и высота нижней границы облаков в метрах; квадратными скобками обозначены формы облаков: Ci - перистые, Cs - перисто-слоистые, Cc - перисто-кучевые, Ac - высококучевые, As - высокослоистые, Sc - слоисто-кучевые, Ns - слоисто-дождевые, Cu - кучевые, Cb - кучево-дождевые. Подробнее классификацию облаков см. в Атласе облаков (PDF).
T - Температура воздуха - температура, измеренная на высоте 2 м над землей.
Td - Температура точки росы - температура, при понижении до которой содержащийся в воздухе водяной пар достигнет насыщения.
f - Относительная влажность воздуха - влажноcть воздуха, измеренная на высоте 2 м над землей.
Te - Эффективная температура - температура, которую ощущает одетый по сезону человек в тени. Характеристика душности погоды. При расчете учитывается влияние влажности воздуха и скорости ветра на теплоощущения человека.
Tes - Эффективная температура на солнце - температура, которую ощущает человек, с поправкой на солнечный нагрев. Характеристика знойности погоды. Зависит от высоты солнца над горизонтом, облачности и скорости ветра. Ночью, в пасмурную погоду, а также при ветре 12 м/с и более поправка равна нулю.
P - Атмосферное давление - приведенное к уровню моря атмосферное давление.
Po - Атмосферное давление - измеренное на уровне метеостанции атмосферное давление.
Tmin - Минимальная температура - минимум температуры воздуха на высоте 2 м над землей.
Tmax - Максимальная температура - максимум температуры воздуха на высоте 2 м над землей.
R - Количество осадков - Количество выпавших осадков за период времени, мм. При наведении курсора мыши на число - период времени, за который выпало указанное количество осадков.
R24 - Количество осадков - Количество выпавших осадков за 24 часа, мм.
S - Снежный покров - Высота снежного покрова, см. При наведении курсора мыши на число - состояние снежного покрова и степень покрытия местности в баллах.